This demonstration page uses our WeatherBlox Daily Observations layout. Learn more.

Left ArrowRight Arrow

44.89941, -97.11507

Hourly Observations for June 13, 2021

Temp ( °F °C ) Dew Point ( °F °C ) Humidity (%) Winds ( mph kmh ) Pressure ( in mb ) Visibility ( mi km ) Precip ( " mm )
12:53 am 00:53 Clear 67 19.4 49 9.4 53 53 Calm 30.00 1016 10 16 0.00 0.00
1:53 am 01:53 Clear 65 18.3 49 9.4 56 56 Calm 30.00 1016 10 16 0.00 0.00
2:53 am 02:53 Clear 62 16.7 48 8.9 60 60 SSE 7 11 30.00 1016 10 16 0.00 0.00
3:53 am 03:53 Clear 64 17.8 48 8.9 56 56 SSE 8 13 29.99 1016 10 16 0.00 0.00
4:53 am 04:53 Clear 63 17.2 48 8.9 58 58 SSE 8 13 29.99 1016 10 16 0.00 0.00
5:53 am 05:53 Sunny 63 17.2 48 8.9 58 58 SSE 9 15 30.01 1016 10 16 0.00 0.00
6:53 am 06:53 Sunny 65 18.3 50 10 59 59 SSE 9 15 30.01 1016 10 16 0.00 0.00
7:53 am 07:53 Sunny 70 21.1 54 12.2 57 57 S 10 17 30.01 1016 10 16 0.00 0.00
8:53 am 08:53 Sunny 74 23.3 54 12.2 50 50 S 15 24 30.02 1017 10 16 0.00 0.00
9:53 am 09:53 Sunny 80 26.7 51 10.6 37 37 SSW 20 31 30.01 1016 10 16 0.00 0.00
10:53 am 10:53 Sunny 83 28.3 51 10.6 33 33 SSW 22 35 30.00 1016 10 16 0.00 0.00
11:53 am 11:53 Sunny 84 28.9 54 12.2 36 36 WSW 17 28 30.01 1016 10 16 0.00 0.00
12:53 pm 12:53 Sunny 86 30 56 13.3 36 36 WSW 15 24 30.00 1016 10 16 0.00 0.00
1:53 pm 13:53 Sunny 88 31.1 55 12.8 33 33 W 13 20 29.99 1016 10 16 0.00 0.00
2:53 pm 14:53 Sunny 88 31.1 58 14.4 36 36 WNW 14 22 30.01 1016 10 16 0.00 0.00
3:53 pm 15:53 Sunny 88 31.1 58 14.4 36 36 NW 13 20 30.01 1016 10 16 0.00 0.00
4:53 pm 16:53 Sunny 88 31.1 58 14.4 36 36 NW 13 20 29.99 1016 10 16 0.00 0.00
5:53 pm 17:53 Sunny 87 30.6 52 11.1 30 30 N 15 24 29.98 1015 10 16 0.00 0.00
6:53 pm 18:53 Sunny 84 28.9 48 8.9 29 29 N 15 24 29.98 1015 10 16 0.00 0.00
7:53 pm 19:53 Sunny 82 27.8 49 9.4 32 32 N 13 20 29.98 1015 10 16 0.00 0.00
8:53 pm 20:53 Sunny 73 22.8 52 11.1 48 48 NNE 7 11 30.00 1016 10 16 0.00 0.00
9:53 pm 21:53 Clear 68 20 50 10 53 53 N 7 11 30.01 1016 10 16 0.00 0.00
10:53 pm 22:53 Clear 64 17.8 50 10 60 60 NNE 5 7 30.03 1017 10 16 0.00 0.00
11:53 pm 23:53 Mostly Clear 63 17.2 50 10 63 63 NE 7 11 30.04 1017 10 16 0.00 0.00

Powered by AerisWeather